This is the latest recevied weather packets stored in our database for station/object KR4KUV. If no packets are shown the sender has not sent any weather packets the latest 10 day(s).
| Time | Temp. | Humidity | Pressure | Rain* | Wind** | Luminosity | Snow |
|---|---|---|---|---|---|---|---|
| 1787861896 | 30.56° C | 68% | 1015.9 hPa | 0 mm | - | 248 W/m² | - |
| 1787861595 | 31.11° C | 67% | 1015.6 hPa | 0 mm | - | 198 W/m² | - |
| 1787861293 | 31.11° C | 66% | 1016 hPa | 0 mm | - | 409 W/m² | - |
| 1787860988 | 31.11° C | 66% | 1016.1 hPa | 0 mm | - | 600 W/m² | - |
| 1787860688 | 31.11° C | 67% | 1016 hPa | 0 mm | - | 526 W/m² | - |
| 1787860383 | 30.56° C | 68% | 1016 hPa | 0 mm | - | 537 W/m² | - |
| 1787860077 | 30.56° C | 70% | 1015.8 hPa | 0 mm | - | 271 W/m² | - |
| 1787859772 | 30.56° C | 70% | 1016.2 hPa | 0 mm | - | 222 W/m² | - |
| 1787859467 | 30.56° C | 72% | 1016.3 hPa | 0 mm | - | 232 W/m² | - |
| 1787859167 | 30.56° C | 71% | 1016.3 hPa | 0 mm | - | 301 W/m² | - |
| 1787858864 | 30.56° C | 70% | 1016.3 hPa | 0 mm | - | 249 W/m² | - |
| 1787858559 | 30.56° C | 68% | 1016.4 hPa | 0 mm | - | 229 W/m² | - |
| 1787858258 | 30.56° C | 69% | 1016.4 hPa | 0 mm | - | 242 W/m² | - |
| 1787857954 | 30.56° C | 68% | 1016.6 hPa | 0 mm | - | 250 W/m² | - |
| 1787857650 | 30° C | 71% | 1016.4 hPa | 0 mm | - | 258 W/m² | - |
| 1787857346 | 30.56° C | 71% | 1016.5 hPa | 0 mm | - | 240 W/m² | - |
| 1787857043 | 30.56° C | 69% | 1016.4 hPa | 0 mm | - | 368 W/m² | - |
| 1787856738 | 30.56° C | 70% | 1016.5 hPa | 0 mm | - | 361 W/m² | - |
| 1787856432 | 29.44° C | 71% | 1016.5 hPa | 0 mm | - | 323 W/m² | - |
| 1787856129 | 29.44° C | 72% | 1016.4 hPa | 0 mm | - | 227 W/m² | - |
| 1787855823 | 29.44° C | 73% | 1016.4 hPa | 0 mm | - | 180 W/m² | - |
| 1787855518 | 29.44° C | 71% | 1016.5 hPa | 0 mm | - | 185 W/m² | - |
| 1787855214 | 30° C | 72% | 1016.6 hPa | 0 mm | - | 518 W/m² | - |
| 1787854909 | 30° C | 72% | 1016.7 hPa | 0 mm | - | 268 W/m² | - |
| 1787854608 | 29.44° C | 75% | 1016.7 hPa | 0 mm | - | 342 W/m² | - |
* Rain latest hour (hover to see other rain measurements)
** Current wind speed in m/s (hover to see current wind gust speed)